Regional Weather Roundup
Issued by NWS

Home | Current Version | Previous Version | Text Only | Print | Product List | Glossary Off
Versions: 1 2 3 4 5 6 7 8 9 10 11 12 13 14 15 16 17 18 19 20 21 22 23 24 25 26 27 28 29 30 31 32 33 34 35 36 37 38 39 40 41 42 43 44 45 46 47 48 49 50

000
ASUS43 KIND 010159
RWRIN

WEATHER ROUNDUP FOR INDIANA
NATIONAL WEATHER SERVICE INDIANAPOLIS IN
1000 PM EDT SUN AUG 31 2014

NOTE: "FAIR" INDICATES FEW OR NO CLOUDS BELOW 12,000 FEET WITH NO
SIGNIFICANT WEATHER AND/OR OBSTRUCTIONS TO VISIBILITY.

* - STATION DOES NOT REPORT WEATHER SUCH AS PRECIPITATION OR FOG.

+ - STATION NOT QUALITY CONTROLLED BY THE NATIONAL WEATHER SERVICE.
    USE DATA WITH CAUTION...ESPECIALLY DEWPOINT AND RELATIVE
    HUMIDITY OBSERVATIONS.

INZ001>003-010>013-019-020-010300-
NORTHWEST INDIANA

CITY           SKY/WX    TMP DP  RH WIND       PRES   REMARKS
GARY /AIRPORT/ CLEAR     73  70  88 S7        29.89F
MONTICELLO +   CLEAR     74  71  91 CALM      29.92S
VALPARAISO     CLEAR     74  68  81 S5        29.91F

$$

LMZ046-743>745-010300-
SOUTHERN LAKE MICHIGAN

STATION/POSITION TIME  TEMP WIND        PRES
                       AIR  DIR/SP/G
                 (UTC) (F)  (DEG/KT/KT) (MB)
MICHIGAN CITY    0100   79  160/  8/ 10   N/A

$$

INZ004-005-014>016-021>024-010300-
NORTH CENTRAL INDIANA

CITY           SKY/WX    TMP DP  RH WIND       PRES   REMARKS
GOSHEN         PTCLDY    72  68  87 SE3       29.94S
SOUTH BEND     CLEAR     73  68  84 CALM      29.93S

$$

INZ006>009-017-018-025>027-010300-
NORTHEAST INDIANA

CITY           SKY/WX    TMP DP  RH WIND       PRES   REMARKS
ANGOLA *+      CLEAR     70  61  73 CALM      29.95S
FORT WAYNE     MOCLDY    72  69  90 S3        29.96S

$$

INZ028-029-035-036-043>045-051>053-010300-
WEST CENTRAL INDIANA

CITY           SKY/WX    TMP DP  RH WIND       PRES   REMARKS
GREENCASTLE +  CLEAR     72  70  94 CALM      29.97S
LAFAYETTE      CLOUDY    75  71  87 S6        29.92F
TERRE HAUTE    CLEAR     74  70  87 S6        29.95R

$$

INZ030>032-037>040-046>048-054>057-064-065-010300-
CENTRAL INDIANA

CITY           SKY/WX    TMP DP  RH WIND       PRES   REMARKS
COLUMBUS       PTCLDY    75  72  88 S5        29.98S
FRANKFORT +    CLEAR    N/A N/A N/A CALM      29.97S
INDIANAPOLIS   PTCLDY    75  69  81 S8        29.96S
-EAGLE CREEK   CLEAR     76  69  79 S3        29.96S
KOKOMO *+      CLEAR     73  68  83 S7        29.95S
MT COMFORT *+  CLOUDY    73 N/A N/A S3        29.99R
SHELBYVILLE    CLEAR     75  70  84 S7        29.98R

$$

INZ033-034-041-042-049-050-058-059-010300-
EAST CENTRAL INDIANA

CITY           SKY/WX    TMP DP  RH WIND       PRES   REMARKS
MUNCIE         CLEAR     75  69  81 S8        29.97S

$$

INZ060-061-067>069-081>083-085>088-010300-
SOUTHWEST INDIANA

CITY           SKY/WX    TMP DP  RH WIND       PRES   REMARKS
EVANSVILLE     PTCLDY    78  71  79 SE6       29.97S

$$

INZ062-063-066-070>080-084-089>092-010300-
SOUTH CENTRAL AND SOUTHEAST INDIANA

CITY           SKY/WX    TMP DP  RH WIND       PRES   REMARKS
BLOOMINGTON    PTCLDY    73  70  90 S3        29.98R

$$




USA.gov is the U.S. government's official web portal to all federal, state and local government web resources and services.